CW1394 Weather Reports


time (UTC)temp
C
wind
direction
speed
KPH
gust
KPH
rain 1hr
cm
rain 24hr
cm
rain mn
cm
humidity
%
barometer
mb
20260503230906 27 300 4.8 11.3 0.00 0.00 0.00 32 1012.6
20260503230405 27 302 4.8 11.3 0.00 0.00 0.00 33 1012.6
20260503225404 26 299 4.8 9.7 0.00 0.00 0.00 36 1012.6
20260503224904 26 301 4.8 9.7 0.00 0.00 0.00 39 1012.6
20260503224404 26 319 3.2 4.8 0.00 0.00 0.00 42 1012.6
20260503223904 26 320 3.2 4.8 0.00 0.00 0.00 39 1013.4
20260503222405 25 320 3.2 8.0 0.00 0.00 0.00 39 1013.4
20260503221904 25 320 3.2 8.0 0.00 0.00 0.00 40 1013.4
20260503221404 25 320 4.8 8.0 0.00 0.00 0.00 42 1013.4
20260503220904 25 321 3.2 4.8 0.00 0.00 0.00 40 1013.4
20260503220405 25 321 3.2 4.8 0.00 0.00 0.00 38 1013.4
20260503215404 24 317 3.2 8.0 0.00 0.00 0.00 39 1013.4
20260503214905 24 316 3.2 8.0 0.00 0.00 0.00 39 1013.6
20260503213905 24 328 3.2 8.0 0.00 0.00 0.00 40 1013.6
20260503213404 24 354 4.8 8.0 0.00 0.00 0.00 40 1013.6
20260503212905 24 315 3.2 8.0 0.00 0.00 0.00 42 1013.7
20260503212406 24 332 3.2 8.0 0.00 0.00 0.00 41 1013.7
20260503211904 24 328 3.2 8.0 0.00 0.00 0.00 40 1013.7
20260503205904 23 320 3.2 8.0 0.00 0.00 0.00 40 1013.7
20260503205405 23 315 4.8 9.7 0.00 0.00 0.00 41 1013.9
20260503204405 24 347 3.2 9.7 0.00 0.00 0.00 39 1013.9
20260503203905 24 336 3.2 8.0 0.00 0.00 0.00 39 1013.9
20260503202906 25 332 4.8 8.0 0.00 0.00 0.00 40 1013.9
20260503202405 25 338 4.8 9.7 0.00 0.00 0.00 38 1013.9
20260503201904 25 315 4.8 9.7 0.00 0.00 0.00 38 1014.2
20260503201406 25 313 4.8 9.7 0.00 0.00 0.00 40 1014.2
20260503200905 25 315 4.8 9.7 0.00 0.00 0.00 42 1014.2
20260503200404 25 308 4.8 9.7 0.00 0.00 0.00 40 1014.2
20260503195404 25 318 3.2 8.0 0.00 0.00 0.00 38 1014.2
20260503193904 25 311 4.8 9.7 0.00 0.00 0.00 43 1014.5
20260503193404 25 321 4.8 9.7 0.00 0.00 0.00 46 1014.5
20260503192905 25 299 4.8 9.7 0.00 0.00 0.00 48 1014.7
20260503192404 24 308 3.2 9.7 0.00 0.00 0.00 46 1014.7
20260503191905 24 299 4.8 9.7 0.00 0.00 0.00 48 1014.7
20260503185406 23 321 4.8 9.7 0.00 0.00 0.00 47 1015.2
20260503184905 23 330 4.8 9.7 0.00 0.00 0.00 48 1015.2
20260503184405 23 324 3.2 4.8 0.00 0.00 0.00 47 1015.2
20260503183905 22 324 3.2 8.0 0.00 0.00 0.00 45 1015.2
20260503183406 22 324 3.2 8.0 0.00 0.00 0.00 49 1015.2
20260503182904 22 324 4.8 8.0 0.00 0.00 0.00 50 1015.2
20260503182406 22 317 4.8 8.0 0.00 0.00 0.00 52 1015.2
20260503181904 22 326 3.2 8.0 0.00 0.00 0.00 50 1015.3
20260503181404 22 326 3.2 8.0 0.00 0.00 0.00 51 1015.3
20260503180904 21 326 4.8 8.0 0.00 0.00 0.00 54 1015.3
20260503180404 21 320 4.8 8.0 0.00 0.00 0.00 51 1015.5
20260503175905 21 324 3.2 4.8 0.00 0.00 0.00 49 1015.5
20260503174406 21 307 3.2 4.8 0.00 0.00 0.00 50 1015.5
20260503173904 21 314 1.6 4.8 0.00 0.00 0.00 49 1015.5
20260503173407 21 314 1.6 4.8 0.00 0.00 0.00 50 1015.6
20260503172905 21 333 1.6 4.8 0.00 0.00 0.00 49 1015.6
20260503172405 21 346 0.0 4.8 0.00 0.00 0.00 48 1015.6
20260503171906 21 346 3.2 4.8 0.00 0.00 0.00 50 1015.7
20260503171406 21 346 3.2 8.0 0.00 0.00 0.00 48 1015.7
20260503170406 22 346 4.8 12.9 0.00 0.00 0.00 48 1015.7
20260503150904 17 253 1.6 8.0 0.00 0.00 0.00 58 1016.0
20260503131404 12 321 4.8 9.7 0.00 0.00 0.00 66 1015.5
20260503130904 12 306 4.8 8.0 0.00 0.00 0.00 66 1015.5
20260503130405 12 276 1.6 9.7 0.00 0.00 0.00 65 1015.5
20260503110405 11 177 12.9 14.5 0.00 0.00 0.00 74 1015.6
20260503090404 12 180 11.3 12.9 0.00 0.00 0.00 73 1015.2
20260503080904 11 249 0.0 3.2 0.00 0.00 0.00 72 1015.3
20260503080405 11 249 0.0 8.0 0.00 0.00 0.00 73 1015.3
20260503072904 12 234 0.0 0.0 0.00 0.00 0.00 72 1015.2
20260503071905 12 234 0.0 0.0 0.00 0.00 0.00 71 1015.2
20260503071405 12 237 0.0 0.0 0.00 0.00 0.00 71 1015.2
20260503070905 12 237 0.0 0.0 0.00 0.00 0.00 71 1015.2
20260503070406 12 237 0.0 3.2 0.00 0.00 0.00 71 1015.2
20260503054905 13 273 1.6 8.0 0.00 0.00 0.00 66 1015.3
20260503053904 13 245 1.6 9.7 0.00 0.00 0.00 65 1015.3
20260503053404 14 248 1.6 9.7 0.00 0.00 0.00 65 1015.3
20260503052905 14 202 3.2 12.9 0.00 0.00 0.00 64 1015.3
20260503051907 15 199 8.0 12.9 0.00 0.00 0.00 63 1015.3
20260503051405 15 232 1.6 12.9 0.00 0.00 0.00 62 1015.3
20260503050406 16 205 6.4 14.5 0.00 0.00 0.00 60 1015.2
20260503045904 16 254 4.8 16.1 0.00 0.00 0.00 59 1015.2
20260503045405 16 225 6.4 16.1 0.00 0.00 0.00 57 1015.2
20260503044908 17 236 6.4 16.1 0.00 0.00 0.00 56 1015.0
20260503044404 17 210 3.2 16.1 0.00 0.00 0.00 54 1015.0
20260503043407 17 172 12.9 14.5 0.00 0.00 0.00 55 1014.9
20260503042904 17 177 12.9 14.5 0.00 0.00 0.00 55 1014.9
20260503042405 17 177 12.9 12.9 0.00 0.00 0.00 56 1014.9
20260503041906 17 175 12.9 14.5 0.00 0.00 0.00 56 1014.7
20260503040407 16 172 11.3 12.9 0.00 0.00 0.00 58 1014.8
20260503035906 16 174 11.3 9.7 0.00 0.00 0.00 58 1014.4
20260503035404 17 174 9.7 9.7 0.00 0.00 0.00 58 1014.4
20260503034906 17 175 8.0 8.0 0.00 0.00 0.00 58 1014.4
20260503033904 17 208 8.0 8.0 0.00 0.00 0.00 58 1014.4
20260503033406 17 210 9.7 8.0 0.00 0.00 0.00 56 1014.4
20260503032905 18 221 4.8 8.0 0.00 0.00 0.00 57 1014.3
20260503032404 18 246 0.0 0.0 0.00 0.00 0.00 55 1014.3
20260503031907 18 325 0.0 0.0 0.00 0.00 0.00 54 1014.4
20260503031404 18 325 0.0 0.0 0.00 0.00 0.00 53 1014.4
20260503030905 19 325 0.0 0.0 0.00 0.00 0.00 53 1014.4
20260503030406 19 325 0.0 0.0 0.00 0.00 0.00 52 1014.3
20260503025906 20 325 0.0 0.0 0.00 0.00 0.00 50 1014.3
20260503025406 20 325 0.0 0.0 0.00 0.00 0.00 48 1014.3
20260503024907 20 325 0.0 0.0 0.00 0.00 0.00 46 1014.3
20260503024404 20 325 0.0 0.0 0.00 0.00 0.00 49 1014.3
20260503023904 20 325 0.0 0.0 0.00 0.00 0.00 47 1014.6
20260503023404 20 325 0.0 0.0 0.00 0.00 0.00 45 1014.6
20260503022904 20 325 0.0 0.0 0.00 0.00 0.00 47 1014.6
20260503022405 21 325 0.0 0.0 0.00 0.00 0.00 47 1014.6
20260503021905 21 325 0.0 0.0 0.00 0.00 0.00 46 1014.6
20260503021405 21 325 0.0 0.0 0.00 0.00 0.00 46 1014.6
20260503020904 21 325 0.0 0.0 0.00 0.00 0.00 46 1014.6
20260503020406 21 325 0.0 0.0 0.00 0.00 0.00 44 1014.7
20260503015905 21 325 0.0 0.0 0.00 0.00 0.00 45 1014.7
20260503015406 21 325 0.0 0.0 0.00 0.00 0.00 43 1014.9
20260503014905 21 325 0.0 0.0 0.00 0.00 0.00 45 1014.9
20260503014404 21 325 0.0 0.0 0.00 0.00 0.00 46 1014.9
20260503013906 21 325 0.0 0.0 0.00 0.00 0.00 44 1014.9
20260503013404 21 325 0.0 3.2 0.00 0.00 0.00 44 1014.9
20260503011905 21 322 0.0 4.8 0.00 0.00 0.00 42 1014.9
20260503011404 22 322 0.0 1.6 0.00 0.00 0.00 43 1015.0
20260503010904 22 322 0.0 1.6 0.00 0.00 0.00 40 1015.0
20260503010404 22 322 0.0 3.2 0.00 0.00 0.00 43 1015.1
20260503005905 22 322 1.6 3.2 0.00 0.00 0.00 43 1015.1
20260503005404 22 322 1.6 4.8 0.00 0.00 0.00 44 1015.1
20260503004904 22 326 1.6 4.8 0.00 0.00 0.00 43 1015.1
20260503004405 23 328 1.6 3.2 0.00 0.00 0.00 45 1015.1
20260503003904 23 326 1.6 3.2 0.00 0.00 0.00 42 1015.1
20260503002904 23 325 1.6 4.8 0.00 0.00 0.00 40 1015.1
20260503000906 24 324 1.6 3.2 0.00 0.00 0.00 40 1015.3
20260503000405 24 323 0.0 3.2 0.00 0.00 0.00 38 1015.3
20260502235904 24 321 1.6 4.8 0.00 0.00 0.00 39 1015.3
20260502235404 25 321 3.2 4.8 0.00 0.00 0.00 37 1015.3
20260502234905 25 320 1.6 3.2 0.00 0.00 0.00 39 1015.3
20260502234404 25 320 3.2 3.2 0.00 0.00 0.00 38 1015.5
20260502233905 25 320 1.6 3.2 0.00 0.00 0.00 39 1015.6
20260502233404 25 320 3.2 3.2 0.00 0.00 0.00 37 1015.7
20260502232904 25 319 1.6 3.2 0.00 0.00 0.00 38 1015.7
20260502232404 25 319 1.6 3.2 0.00 0.00 0.00 39 1015.9
20260502231905 25 319 1.6 4.8 0.00 0.00 0.00 39 1015.9
20260502231404 25 319 3.2 4.8 0.00 0.00 0.00 41 1015.9